STARLINK-35879, 66960

Orbit data source: Space-Track

STARLINK-35879, 66960 is a payload satellite owned by SpaceX/Seattle (US) in LEO that was launched on Mon, 08 Dec 2025 UTC via an FALCON 9 launch vehicle from the Air Force Eastern Test Range (AFETR). Payload-class satellites include a variety of spacecraft equipped with specific instruments for various scientific and technological missions. These include communications satellites like Starlink; space stations such as the ISS; scientific satellites like the Hubble; Earth observation satellites from companies like Planet Labs, Umbra, and HawkEye 360; GPS; miniature CubeSats for education and research; and military/defense satellites.

Loading next visibility...
Identifier
66960, 2025-288B
Orbit
LEO
Country
Flag of USUS
Related business
Manufacturer
SpaceX/Seattle
Mission
Operational Commercial Communications
Bus & Motor
STARLINK V2MO, Unknown motor
Mass
575 kg wet, ~530 kg dry
Launch date (UTC)
2025-12-08 (5 months ago)
Launch vehicle
FALCON 9
Launch site
Air Force Eastern Test Range (AFETR)
Object type
Payload
Rocket body
Debris
Shape & HBR
Box + 2 Pan, 17.7 m
Radar Cross Section
36.964 m²

Expand to show TLE details & history
Last TLE update: 13 hours ago

TLE from 13 hours ago
0 STARLINK-35879
1 66960U 25288B   26129.93788465  .00014607  00000-0  53945-3 0  9999
2 66960  43.0047  37.6385 0001524 265.0254  95.0423 15.27568939 24650
Epoch: 2026-05-09T22:30Z
TLE epoch observation values (Epoch: 2026-05-09T22:30:33.233Z)
Latitude
-0.00008°
Longitude
-167.7482°
Altitude
482.95 km
Speed
7.626 km/s
True Right ascension
02h 30m 33s
True Declination
0° 00' 00"
Sunlit
Object was in daylight at epoch
Visualization orbit readout
Latitude
Unknown
Longitude
Unknown
Altitude
Unknown
Speed
Unknown
Apparent Right ascension
Unknown
Apparent Declination
Unknown
Sunlit
N/A
Visualization observer readout
Local Sidereal Time
19:48:33
Azimuth
Unknown
Elevation
Unknown
Doppler factor
Unknown
Orbital elements
Apogee altitude
486.073 km
Perigee altitude
483.981 km
Semi-major axis
6,863.164 km
Eccentricity
0.00015
Inclination
43.0047°
RAAN
37.6385°
Arg. of periapsis
265.0254°
True anomaly
95.0597°
Mean anomaly
95.0423°
Eccentric anomaly
95.051°
Mean motion
3.8173 °/min
Orbital period
94.31 mins
BSTAR
0.00053945
Loading maneuver chart data...
Computing Atmospheric mass density...
Loading historical data...
Loading historical data...
Loading historical data...
Loading historical data...
Loading historical data...
Loading historical data...
Loading historical data...

Documentation

Showing up to 5 results
|